| time (UTC) | temp F | wind direction | speed knots | gust knots | rain 1hr in | rain 24hr in | rain mn in | humidity % | barometer mb |
| 20260509090211 | 63 | 184 | 4.3 | 5.2 | 0.00 | 0.00 | 0.00 | 62 | 1025.5 |
| 20260509085710 | 64 | 180 | 4.3 | 5.2 | 0.00 | 0.00 | 0.00 | 62 | 1025.4 |
| 20260509085211 | 64 | 172 | 2.6 | 4.3 | 0.00 | 0.00 | 0.00 | 62 | 1025.3 |
| 20260509084711 | 64 | 172 | 2.6 | 6.1 | 0.00 | 0.00 | 0.00 | 61 | 1025.3 |
| 20260509084211 | 64 | 174 | 5.2 | 7.0 | 0.00 | 0.00 | 0.00 | 61 | 1025.4 |
| 20260509083710 | 64 | 177 | 5.2 | 6.1 | 0.00 | 0.00 | 0.00 | 62 | 1025.2 |
| 20260509083211 | 64 | 167 | 5.2 | 7.0 | 0.00 | 0.00 | 0.00 | 63 | 1025.1 |
| 20260509082711 | 64 | 157 | 6.1 | 7.8 | 0.00 | 0.00 | 0.00 | 62 | 1025.0 |
| 20260509082211 | 64 | 160 | 6.1 | 7.8 | 0.00 | 0.00 | 0.00 | 61 | 1025.4 |
| 20260509081711 | 64 | 158 | 6.1 | 7.8 | 0.00 | 0.00 | 0.00 | 61 | 1024.9 |
| 20260509081210 | 64 | 162 | 5.2 | 8.7 | 0.00 | 0.00 | 0.00 | 62 | 1024.9 |
| 20260509080711 | 64 | 157 | 6.1 | 7.8 | 0.00 | 0.00 | 0.00 | 61 | 1025.0 |
| 20260509080211 | 64 | 162 | 5.2 | 7.0 | 0.00 | 0.00 | 0.00 | 61 | 1024.7 |
| 20260509075711 | 64 | 167 | 4.3 | 6.1 | 0.00 | 0.00 | 0.00 | 62 | 1024.9 |
| 20260509075211 | 64 | 160 | 5.2 | 7.8 | 0.00 | 0.00 | 0.00 | 62 | 1024.9 |
| 20260509074711 | 64 | 160 | 4.3 | 8.7 | 0.00 | 0.00 | 0.00 | 61 | 1024.5 |
| 20260509073711 | 64 | 148 | 5.2 | 8.7 | 0.00 | 0.00 | 0.00 | 61 | 1024.5 |
| 20260509073210 | 64 | 159 | 5.2 | 7.0 | 0.00 | 0.00 | 0.00 | 60 | 1024.5 |
| 20260509072710 | 64 | 151 | 5.2 | 7.0 | 0.00 | 0.00 | 0.00 | 60 | 1024.6 |
| 20260509071710 | 65 | 152 | 5.2 | 7.8 | 0.00 | 0.00 | 0.00 | 59 | 1024.3 |
| 20260509071211 | 65 | 150 | 6.1 | 8.7 | 0.00 | 0.00 | 0.00 | 59 | 1024.3 |
| 20260509070711 | 65 | 147 | 5.2 | 7.0 | 0.00 | 0.00 | 0.00 | 59 | 1024.3 |
| 20260509070210 | 65 | 148 | 4.3 | 7.0 | 0.00 | 0.00 | 0.00 | 57 | 1024.4 |
| 20260509065710 | 65 | 160 | 6.1 | 8.7 | 0.00 | 0.00 | 0.00 | 57 | 1024.1 |
| 20260509065211 | 65 | 153 | 5.2 | 7.8 | 0.00 | 0.00 | 0.00 | 57 | 1024.1 |
| 20260509064710 | 66 | 125 | 4.3 | 7.8 | 0.00 | 0.00 | 0.00 | 56 | 1024.2 |
| 20260509063711 | 66 | 159 | 6.1 | 10.4 | 0.00 | 0.00 | 0.00 | 55 | 1024.0 |
| 20260509063210 | 66 | 154 | 7.8 | 10.4 | 0.00 | 0.00 | 0.00 | 54 | 1024.0 |
| 20260509062710 | 67 | 150 | 8.7 | 11.3 | 0.00 | 0.00 | 0.00 | 54 | 1023.9 |
| 20260509062211 | 67 | 155 | 7.8 | 10.4 | 0.00 | 0.00 | 0.00 | 53 | 1023.9 |
| 20260509061711 | 67 | 148 | 4.3 | 7.0 | 0.00 | 0.00 | 0.00 | 54 | 1023.9 |
| 20260509061210 | 67 | 131 | 6.1 | 10.4 | 0.00 | 0.00 | 0.00 | 52 | 1023.8 |
| 20260509060711 | 67 | 155 | 6.1 | 11.3 | 0.00 | 0.00 | 0.00 | 51 | 1023.8 |
| 20260509060211 | 67 | 164 | 7.8 | 11.3 | 0.00 | 0.00 | 0.00 | 50 | 1023.9 |
| 20260509055210 | 67 | 155 | 5.2 | 10.4 | 0.00 | 0.00 | 0.00 | 52 | 1023.6 |
| 20260509054211 | 67 | 128 | 6.1 | 13.0 | 0.00 | 0.00 | 0.00 | 52 | 1023.4 |
| 20260509053711 | 67 | 143 | 9.6 | 13.0 | 0.00 | 0.00 | 0.00 | 51 | 1023.5 |
| 20260509053210 | 67 | 127 | 6.1 | 10.4 | 0.00 | 0.00 | 0.00 | 51 | 1023.5 |
| 20260509052710 | 67 | 159 | 5.2 | 11.3 | 0.00 | 0.00 | 0.00 | 53 | 1023.4 |
| 20260509052210 | 67 | 133 | 8.7 | 12.2 | 0.00 | 0.00 | 0.00 | 51 | 1023.5 |
| 20260509051711 | 67 | 157 | 7.8 | 11.3 | 0.00 | 0.00 | 0.00 | 52 | 1023.6 |
| 20260509050710 | 67 | 146 | 8.7 | 12.2 | 0.00 | 0.00 | 0.00 | 52 | 1023.3 |
| 20260509050210 | 67 | 155 | 6.1 | 11.3 | 0.00 | 0.00 | 0.00 | 51 | 1023.8 |
| 20260509045710 | 67 | 149 | 9.6 | 13.9 | 0.00 | 0.00 | 0.00 | 51 | 1023.4 |
| 20260509045209 | 67 | 136 | 10.4 | 12.2 | 0.00 | 0.00 | 0.00 | 51 | 1023.5 |
| 20260509044710 | 67 | 157 | 8.7 | 12.2 | 0.00 | 0.00 | 0.00 | 51 | 1023.3 |
| 20260509044210 | 67 | 177 | 8.7 | 13.0 | 0.00 | 0.00 | 0.00 | 51 | 1023.6 |
| 20260509043210 | 67 | 144 | 8.7 | 12.2 | 0.00 | 0.00 | 0.00 | 50 | 1023.2 |
| 20260509042710 | 67 | 167 | 8.7 | 12.2 | 0.00 | 0.00 | 0.00 | 50 | 1023.2 |
| 20260509042210 | 67 | 167 | 6.1 | 13.0 | 0.00 | 0.00 | 0.00 | 49 | 1023.3 |
| 20260509041710 | 68 | 112 | 7.8 | 12.2 | 0.00 | 0.00 | 0.00 | 49 | 1023.2 |
| 20260509041210 | 68 | 164 | 7.8 | 14.8 | 0.00 | 0.00 | 0.00 | 48 | 1023.4 |
| 20260509040711 | 68 | 144 | 7.8 | 11.3 | 0.00 | 0.00 | 0.00 | 48 | 1023.1 |
| 20260509040210 | 68 | 136 | 9.6 | 13.9 | 0.00 | 0.00 | 0.00 | 48 | 1023.2 |
| 20260509035710 | 68 | 145 | 7.8 | 12.2 | 0.00 | 0.00 | 0.00 | 49 | 1023.2 |
| 20260509035210 | 68 | 158 | 7.8 | 11.3 | 0.00 | 0.00 | 0.00 | 48 | 1023.2 |
| 20260509034710 | 68 | 153 | 8.7 | 13.9 | 0.00 | 0.00 | 0.00 | 49 | 1023.3 |
| 20260509034210 | 68 | 173 | 8.7 | 13.9 | 0.00 | 0.00 | 0.00 | 49 | 1023.3 |
| 20260509033710 | 68 | 155 | 7.0 | 12.2 | 0.00 | 0.00 | 0.00 | 49 | 1023.2 |
| 20260509033210 | 68 | 174 | 10.4 | 13.9 | 0.00 | 0.00 | 0.00 | 47 | 1023.4 |
| 20260509032710 | 68 | 148 | 6.1 | 17.4 | 0.00 | 0.00 | 0.00 | 49 | 1023.4 |
| 20260509031710 | 68 | 142 | 8.7 | 13.0 | 0.00 | 0.00 | 0.00 | 48 | 1023.4 |
| 20260509031210 | 68 | 148 | 8.7 | 13.9 | 0.00 | 0.00 | 0.00 | 48 | 1023.5 |
| 20260509030710 | 68 | 166 | 10.4 | 14.8 | 0.00 | 0.00 | 0.00 | 48 | 1023.6 |
| 20260509030210 | 69 | 137 | 9.6 | 15.6 | 0.00 | 0.00 | 0.00 | 49 | 1023.6 |
| 20260509025710 | 69 | 158 | 7.0 | 13.0 | 0.00 | 0.00 | 0.00 | 47 | 1023.5 |
| 20260509025210 | 69 | 132 | 10.4 | 15.6 | 0.00 | 0.00 | 0.00 | 48 | 1024.0 |
| 20260509024710 | 69 | 197 | 8.7 | 14.8 | 0.00 | 0.00 | 0.00 | 46 | 1023.8 |
| 20260509024210 | 69 | 151 | 11.3 | 15.6 | 0.00 | 0.00 | 0.00 | 45 | 1023.8 |
| 20260509023210 | 70 | 189 | 12.2 | 15.6 | 0.00 | 0.00 | 0.00 | 44 | 1024.0 |
| 20260509022710 | 70 | 148 | 8.7 | 14.8 | 0.00 | 0.00 | 0.00 | 45 | 1024.1 |
| 20260509022210 | 70 | 165 | 12.2 | 17.4 | 0.00 | 0.00 | 0.00 | 45 | 1024.0 |
| 20260509020710 | 70 | 179 | 11.3 | 17.4 | 0.00 | 0.00 | 0.00 | 44 | 1024.2 |
| 20260509015710 | 70 | 162 | 6.1 | 13.0 | 0.00 | 0.00 | 0.00 | 43 | 1024.3 |
| 20260509015210 | 70 | 180 | 9.6 | 14.8 | 0.00 | 0.00 | 0.00 | 43 | 1024.5 |
| 20260509014710 | 70 | 176 | 12.2 | 17.4 | 0.00 | 0.00 | 0.00 | 43 | 1024.4 |
| 20260509014210 | 70 | 189 | 8.7 | 17.4 | 0.00 | 0.00 | 0.00 | 44 | 1024.6 |
| 20260509013210 | 70 | 139 | 5.2 | 10.4 | 0.00 | 0.00 | 0.00 | 44 | 1024.7 |
| 20260509012710 | 70 | 193 | 11.3 | 14.8 | 0.00 | 0.00 | 0.00 | 42 | 1024.6 |
| 20260509012210 | 70 | 190 | 8.7 | 17.4 | 0.00 | 0.00 | 0.00 | 42 | 1024.9 |
| 20260509011710 | 70 | 165 | 7.0 | 12.2 | 0.00 | 0.00 | 0.00 | 42 | 1024.8 |
| 20260509011209 | 71 | 175 | 8.7 | 14.8 | 0.00 | 0.00 | 0.00 | 42 | 1024.7 |
| 20260509010710 | 71 | 195 | 8.7 | 12.2 | 0.00 | 0.00 | 0.00 | 42 | 1024.7 |
| 20260509010210 | 71 | 202 | 6.1 | 8.7 | 0.00 | 0.00 | 0.00 | 42 | 1024.8 |
| 20260509005710 | 70 | 194 | 2.6 | 10.4 | 0.00 | 0.00 | 0.00 | 43 | 1025.0 |
| 20260509005210 | 70 | 208 | 5.2 | 10.4 | 0.00 | 0.00 | 0.00 | 43 | 1024.8 |
| 20260509004709 | 70 | 200 | 6.1 | 13.0 | 0.00 | 0.00 | 0.00 | 42 | 1024.9 |
| 20260509004210 | 70 | 193 | 10.4 | 13.0 | 0.00 | 0.00 | 0.00 | 42 | 1024.9 |
| 20260509003710 | 71 | 179 | 6.1 | 13.9 | 0.00 | 0.00 | 0.00 | 42 | 1025.1 |
| 20260509002710 | 71 | 181 | 6.1 | 10.4 | 0.00 | 0.00 | 0.00 | 41 | 1024.8 |
| 20260509002209 | 70 | 191 | 5.2 | 10.4 | 0.00 | 0.00 | 0.00 | 41 | 1024.8 |
| 20260509001710 | 70 | 202 | 5.2 | 10.4 | 0.00 | 0.00 | 0.00 | 41 | 1024.8 |
| 20260509001210 | 70 | 200 | 3.5 | 8.7 | 0.00 | 0.00 | 0.00 | 43 | 1025.1 |
| 20260509000710 | 70 | 198 | 5.2 | 8.7 | 0.00 | 0.00 | 0.00 | 42 | 1025.2 |
| 20260509000211 | 70 | 189 | 3.5 | 8.7 | 0.00 | 0.00 | 0.00 | 43 | 1025.0 |
| 20260508235209 | 69 | 244 | 3.5 | 6.1 | 0.00 | 0.00 | 0.00 | 44 | 1025.1 |
| 20260508234709 | 69 | 245 | 4.3 | 7.0 | 0.00 | 0.00 | 0.00 | 45 | 1025.3 |
| 20260508234210 | 68 | 246 | 2.6 | 4.3 | 0.00 | 0.00 | 0.00 | 46 | 1024.9 |
| 20260508233710 | 68 | 240 | 2.6 | 5.2 | 0.00 | 0.00 | 0.00 | 45 | 1025.0 |
| 20260508233209 | 68 | 247 | 2.6 | 7.0 | 0.00 | 0.00 | 0.00 | 47 | 1025.1 |
| 20260508232710 | 67 | 275 | 1.7 | 5.2 | 0.00 | 0.00 | 0.00 | 48 | 1025.0 |
| 20260508232209 | 67 | 261 | 2.6 | 4.3 | 0.00 | 0.00 | 0.00 | 49 | 1025.0 |
| 20260508231709 | 67 | 282 | 2.6 | 4.3 | 0.00 | 0.00 | 0.00 | 48 | 1025.1 |
| 20260508230210 | 64 | 256 | 2.6 | 5.2 | 0.00 | 0.00 | 0.00 | 53 | 1025.1 |
| 20260508225210 | 62 | 267 | 4.3 | 8.7 | 0.00 | 0.00 | 0.00 | 56 | 1025.1 |
| 20260508224710 | 61 | 275 | 5.2 | 7.8 | 0.00 | 0.00 | 0.00 | 57 | 1025.1 |
| 20260508224210 | 61 | 268 | 6.1 | 8.7 | 0.00 | 0.00 | 0.00 | 58 | 1024.9 |
| 20260508223710 | 60 | 281 | 5.2 | 8.7 | 0.00 | 0.00 | 0.00 | 60 | 1024.9 |
| 20260508223210 | 59 | 279 | 6.1 | 7.8 | 0.00 | 0.00 | 0.00 | 61 | 1024.9 |
| 20260508222710 | 59 | 285 | 5.2 | 7.8 | 0.00 | 0.00 | 0.00 | 63 | 1024.9 |
| 20260508222210 | 58 | 283 | 5.2 | 8.7 | 0.00 | 0.00 | 0.00 | 63 | 1024.8 |
| 20260508221710 | 58 | 288 | 6.1 | 8.7 | 0.00 | 0.00 | 0.00 | 63 | 1024.9 |
| 20260508221210 | 58 | 281 | 5.2 | 7.8 | 0.00 | 0.00 | 0.00 | 65 | 1024.8 |
| 20260508220709 | 57 | 282 | 6.1 | 8.7 | 0.00 | 0.00 | 0.00 | 65 | 1024.6 |
| 20260508220210 | 57 | 286 | 7.0 | 8.7 | 0.00 | 0.00 | 0.00 | 66 | 1024.5 |
| 20260508215709 | 57 | 281 | 7.0 | 8.7 | 0.00 | 0.00 | 0.00 | 67 | 1024.6 |
| 20260508215210 | 56 | 280 | 7.0 | 8.7 | 0.00 | 0.00 | 0.00 | 67 | 1024.5 |
| 20260508213210 | 56 | 290 | 7.8 | 10.4 | 0.00 | 0.00 | 0.00 | 69 | 1024.4 |
| 20260508212709 | 56 | 287 | 7.0 | 8.7 | 0.00 | 0.00 | 0.00 | 68 | 1024.3 |
| 20260508212210 | 55 | 287 | 7.8 | 10.4 | 0.00 | 0.00 | 0.00 | 69 | 1024.5 |
| 20260508211709 | 55 | 280 | 8.7 | 11.3 | 0.00 | 0.00 | 0.00 | 69 | 1024.4 |
| 20260508210209 | 55 | 275 | 7.8 | 10.4 | 0.00 | 0.00 | 0.00 | 69 | 1024.1 |
| 20260508205710 | 55 | 276 | 8.7 | 10.4 | 0.00 | 0.00 | 0.00 | 69 | 1024.1 |
| 20260508205209 | 55 | 282 | 8.7 | 10.4 | 0.00 | 0.00 | 0.00 | 69 | 1023.9 |
| 20260508204709 | 55 | 289 | 8.7 | 11.3 | 0.00 | 0.00 | 0.00 | 68 | 1023.8 |
| 20260508204209 | 55 | 293 | 8.7 | 10.4 | 0.00 | 0.00 | 0.00 | 67 | 1023.8 |
| 20260508203209 | 57 | 298 | 7.8 | 10.4 | 0.00 | 0.00 | 0.00 | 64 | 1023.5 |
| 20260508202709 | 57 | 291 | 5.2 | 7.0 | 0.00 | 0.00 | 0.00 | 62 | 1023.6 |
| 20260508202209 | 58 | 269 | 5.2 | 7.0 | 0.00 | 0.00 | 0.00 | 61 | 1023.6 |
| 20260508201709 | 58 | 265 | 6.1 | 7.8 | 0.00 | 0.00 | 0.00 | 61 | 1023.2 |
| 20260508201209 | 58 | 265 | 5.2 | 7.0 | 0.00 | 0.00 | 0.00 | 61 | 1023.2 |
| 20260508200709 | 58 | 264 | 5.2 | 7.0 | 0.00 | 0.00 | 0.00 | 61 | 1023.1 |
| 20260508200209 | 58 | 278 | 5.2 | 6.1 | 0.00 | 0.00 | 0.00 | 61 | 1023.4 |
| 20260508195710 | 58 | 259 | 5.2 | 7.0 | 0.00 | 0.00 | 0.00 | 61 | 1023.2 |
| 20260508195209 | 58 | 258 | 5.2 | 6.1 | 0.00 | 0.00 | 0.00 | 61 | 1022.9 |
| 20260508194709 | 58 | 261 | 5.2 | 6.1 | 0.00 | 0.00 | 0.00 | 62 | 1023.1 |
| 20260508194210 | 58 | 269 | 5.2 | 6.1 | 0.00 | 0.00 | 0.00 | 62 | 1022.8 |
| 20260508193709 | 58 | 272 | 5.2 | 7.0 | 0.00 | 0.00 | 0.00 | 62 | 1022.9 |
| 20260508192710 | 58 | 283 | 6.1 | 7.8 | 0.00 | 0.00 | 0.00 | 62 | 1022.7 |
| 20260508192209 | 58 | 285 | 6.1 | 7.8 | 0.00 | 0.00 | 0.00 | 63 | 1022.9 |
| 20260508191710 | 58 | 281 | 6.1 | 7.0 | 0.00 | 0.00 | 0.00 | 63 | 1022.5 |
| 20260508191210 | 58 | 285 | 4.3 | 5.2 | 0.00 | 0.00 | 0.00 | 63 | 1022.5 |
| 20260508190709 | 58 | 277 | 4.3 | 6.1 | 0.00 | 0.00 | 0.00 | 63 | 1022.6 |
| 20260508190209 | 58 | 274 | 5.2 | 6.1 | 0.00 | 0.00 | 0.00 | 63 | 1022.4 |
| 20260508185209 | 58 | 282 | 5.2 | 7.0 | 0.00 | 0.00 | 0.00 | 62 | 1022.4 |
| 20260508184709 | 58 | 279 | 5.2 | 7.8 | 0.00 | 0.00 | 0.00 | 62 | 1022.4 |
| 20260508184209 | 58 | 269 | 4.3 | 7.0 | 0.00 | 0.00 | 0.00 | 63 | 1022.4 |
| 20260508183709 | 58 | 248 | 5.2 | 7.8 | 0.00 | 0.00 | 0.00 | 63 | 1022.4 |
| 20260508183209 | 58 | 251 | 6.1 | 8.7 | 0.00 | 0.00 | 0.00 | 63 | 1022.4 |
| 20260508182709 | 58 | 251 | 7.8 | 10.4 | 0.00 | 0.00 | 0.00 | 63 | 1022.2 |
| 20260508182209 | 58 | 253 | 6.1 | 8.7 | 0.00 | 0.00 | 0.00 | 63 | 1022.1 |
| 20260508181709 | 58 | 242 | 6.1 | 8.7 | 0.00 | 0.00 | 0.00 | 63 | 1022.2 |
| 20260508181209 | 58 | 249 | 6.1 | 10.4 | 0.00 | 0.00 | 0.00 | 63 | 1022.1 |
| 20260508180209 | 58 | 244 | 6.1 | 8.7 | 0.00 | 0.00 | 0.00 | 63 | 1022.0 |
| 20260508175709 | 58 | 265 | 5.2 | 10.4 | 0.00 | 0.00 | 0.00 | 63 | 1022.4 |
| 20260508175209 | 58 | 252 | 8.7 | 10.4 | 0.00 | 0.00 | 0.00 | 62 | 1022.0 |
| 20260508174709 | 58 | 248 | 8.7 | 11.3 | 0.00 | 0.00 | 0.00 | 63 | 1021.9 |
| 20260508174209 | 58 | 251 | 9.6 | 11.3 | 0.00 | 0.00 | 0.00 | 63 | 1022.0 |
| 20260508173709 | 58 | 252 | 8.7 | 11.3 | 0.00 | 0.00 | 0.00 | 63 | 1021.9 |
| 20260508173209 | 58 | 245 | 8.7 | 11.3 | 0.00 | 0.00 | 0.00 | 63 | 1021.9 |
| 20260508172209 | 58 | 243 | 7.8 | 12.2 | 0.00 | 0.00 | 0.00 | 63 | 1021.8 |
| 20260508171708 | 58 | 247 | 7.8 | 10.4 | 0.00 | 0.00 | 0.00 | 63 | 1022.1 |
| 20260508171209 | 58 | 245 | 7.0 | 10.4 | 0.00 | 0.00 | 0.00 | 63 | 1022.2 |
| 20260508170709 | 58 | 252 | 7.8 | 11.3 | 0.00 | 0.00 | 0.00 | 63 | 1022.1 |
| 20260508170209 | 58 | 244 | 10.4 | 13.9 | 0.00 | 0.00 | 0.00 | 63 | 1022.1 |
| 20260508165709 | 58 | 246 | 10.4 | 13.0 | 0.00 | 0.00 | 0.00 | 63 | 1021.9 |
| 20260508165209 | 58 | 248 | 8.7 | 14.8 | 0.00 | 0.00 | 0.00 | 63 | 1022.1 |
| 20260508164709 | 58 | 252 | 7.0 | 10.4 | 0.00 | 0.00 | 0.00 | 63 | 1021.9 |
| 20260508164209 | 58 | 254 | 7.8 | 10.4 | 0.00 | 0.00 | 0.00 | 63 | 1022.1 |
| 20260508162709 | 58 | 259 | 8.7 | 12.2 | 0.00 | 0.00 | 0.00 | 62 | 1022.0 |
| 20260508162209 | 58 | 268 | 7.8 | 11.3 | 0.00 | 0.00 | 0.00 | 62 | 1022.0 |
| 20260508161209 | 59 | 260 | 5.2 | 7.8 | 0.00 | 0.00 | 0.00 | 62 | 1022.0 |
| 20260508160209 | 59 | 259 | 6.1 | 7.8 | 0.00 | 0.00 | 0.00 | 61 | 1022.1 |
| 20260508155709 | 59 | 262 | 6.1 | 8.7 | 0.00 | 0.00 | 0.00 | 61 | 1021.9 |
| 20260508155209 | 59 | 253 | 7.0 | 7.8 | 0.00 | 0.00 | 0.00 | 61 | 1022.0 |
| 20260508154709 | 59 | 263 | 5.2 | 7.8 | 0.00 | 0.00 | 0.00 | 61 | 1022.0 |
| 20260508153709 | 59 | 246 | 6.1 | 8.7 | 0.00 | 0.00 | 0.00 | 61 | 1022.0 |
| 20260508153209 | 59 | 245 | 7.0 | 10.4 | 0.00 | 0.00 | 0.00 | 61 | 1022.3 |
| 20260508152208 | 59 | 251 | 6.1 | 10.4 | 0.00 | 0.00 | 0.00 | 60 | 1021.9 |
| 20260508151709 | 59 | 243 | 7.0 | 10.4 | 0.00 | 0.00 | 0.00 | 60 | 1022.0 |
| 20260508151209 | 59 | 246 | 7.8 | 10.4 | 0.00 | 0.00 | 0.00 | 60 | 1022.0 |
| 20260508150709 | 59 | 241 | 7.8 | 12.2 | 0.00 | 0.00 | 0.00 | 60 | 1022.0 |
| 20260508150208 | 59 | 247 | 8.7 | 12.2 | 0.00 | 0.00 | 0.00 | 60 | 1022.2 |
| 20260508144708 | 59 | 243 | 9.6 | 13.9 | 0.00 | 0.00 | 0.00 | 59 | 1021.8 |
| 20260508143709 | 59 | 238 | 11.3 | 17.4 | 0.00 | 0.00 | 0.00 | 59 | 1021.8 |
| 20260508143209 | 59 | 239 | 14.8 | 17.4 | 0.00 | 0.00 | 0.00 | 58 | 1021.8 |
| 20260508142709 | 59 | 247 | 11.3 | 13.9 | 0.00 | 0.00 | 0.00 | 58 | 1021.6 |
| 20260508142208 | 59 | 241 | 11.3 | 15.6 | 0.00 | 0.00 | 0.00 | 59 | 1021.8 |
| 20260508141709 | 59 | 242 | 12.2 | 17.4 | 0.00 | 0.00 | 0.00 | 58 | 1021.9 |
| 20260508141208 | 59 | 246 | 13.0 | 17.4 | 0.00 | 0.00 | 0.00 | 58 | 1021.6 |
| 20260508140709 | 59 | 243 | 13.9 | 15.6 | 0.00 | 0.00 | 0.00 | 58 | 1021.8 |
| 20260508140209 | 59 | 246 | 13.0 | 15.6 | 0.00 | 0.00 | 0.00 | 58 | 1021.5 |
| 20260508135208 | 59 | 243 | 12.2 | 15.6 | 0.00 | 0.00 | 0.00 | 58 | 1021.7 |
| 20260508134709 | 59 | 249 | 11.3 | 17.4 | 0.00 | 0.00 | 0.00 | 58 | 1021.8 |
| 20260508134209 | 59 | 246 | 12.2 | 17.4 | 0.00 | 0.00 | 0.00 | 58 | 1021.7 |
| 20260508133709 | 59 | 242 | 12.2 | 15.6 | 0.00 | 0.00 | 0.00 | 58 | 1021.7 |
| 20260508133208 | 59 | 255 | 10.4 | 13.9 | 0.00 | 0.00 | 0.00 | 58 | 1021.5 |
| 20260508132708 | 59 | 250 | 13.9 | 19.1 | 0.00 | 0.00 | 0.00 | 58 | 1021.6 |
| 20260508132208 | 59 | 247 | 11.3 | 17.4 | 0.00 | 0.00 | 0.00 | 58 | 1021.5 |
| 20260508131709 | 59 | 244 | 12.2 | 17.4 | 0.00 | 0.00 | 0.00 | 57 | 1021.6 |
| 20260508131209 | 59 | 242 | 13.9 | 17.4 | 0.00 | 0.00 | 0.00 | 57 | 1021.5 |
| 20260508130708 | 59 | 238 | 13.0 | 17.4 | 0.00 | 0.00 | 0.00 | 57 | 1021.6 |
| 20260508130209 | 59 | 250 | 12.2 | 17.4 | 0.00 | 0.00 | 0.00 | 57 | 1021.4 |
| 20260508125208 | 60 | 251 | 12.2 | 17.4 | 0.00 | 0.00 | 0.00 | 57 | 1021.4 |
| 20260508124709 | 60 | 260 | 12.2 | 17.4 | 0.00 | 0.00 | 0.00 | 57 | 1021.5 |
| 20260508124208 | 60 | 252 | 12.2 | 17.4 | 0.00 | 0.00 | 0.00 | 57 | 1021.5 |
| 20260508123708 | 60 | 248 | 14.8 | 17.4 | 0.00 | 0.00 | 0.00 | 56 | 1021.6 |
| 20260508123208 | 60 | 251 | 12.2 | 17.4 | 0.00 | 0.00 | 0.00 | 56 | 1021.5 |
| 20260508121709 | 60 | 241 | 11.3 | 18.2 | 0.00 | 0.00 | 0.00 | 56 | 1021.5 |
| 20260508121208 | 60 | 240 | 11.3 | 20.0 | 0.00 | 0.00 | 0.00 | 56 | 1021.5 |
| 20260508120709 | 60 | 252 | 13.9 | 19.1 | 0.00 | 0.00 | 0.00 | 55 | 1021.6 |
| 20260508120208 | 60 | 261 | 12.2 | 20.9 | 0.00 | 0.00 | 0.00 | 55 | 1021.5 |
| 20260508115709 | 60 | 252 | 13.0 | 20.9 | 0.00 | 0.00 | 0.00 | 55 | 1021.4 |
| 20260508115208 | 60 | 254 | 13.0 | 20.0 | 0.00 | 0.00 | 0.00 | 55 | 1021.5 |
| 20260508114208 | 60 | 252 | 13.0 | 20.0 | 0.00 | 0.00 | 0.00 | 55 | 1021.3 |
| 20260508112708 | 60 | 256 | 17.4 | 22.6 | 0.00 | 0.00 | 0.00 | 55 | 1021.2 |
| 20260508112209 | 60 | 256 | 14.8 | 22.6 | 0.00 | 0.00 | 0.00 | 55 | 1021.2 |
| 20260508111709 | 60 | 256 | 17.4 | 24.3 | 0.00 | 0.00 | 0.00 | 55 | 1021.0 |
| 20260508111209 | 60 | 258 | 17.4 | 25.2 | 0.00 | 0.00 | 0.00 | 55 | 1021.1 |
| 20260508110708 | 60 | 257 | 14.8 | 21.7 | 0.00 | 0.00 | 0.00 | 55 | 1021.0 |
| 20260508110208 | 60 | 254 | 18.2 | 24.3 | 0.00 | 0.00 | 0.00 | 55 | 1021.0 |
| 20260508105708 | 60 | 249 | 15.6 | 24.3 | 0.00 | 0.00 | 0.00 | 55 | 1021.0 |
| 20260508105208 | 60 | 252 | 19.1 | 25.2 | 0.00 | 0.00 | 0.00 | 55 | 1020.8 |
| 20260508104709 | 60 | 251 | 15.6 | 22.6 | 0.00 | 0.00 | 0.00 | 55 | 1020.8 |
| 20260508104209 | 60 | 260 | 15.6 | 24.3 | 0.00 | 0.00 | 0.00 | 54 | 1020.7 |
| 20260508103708 | 60 | 255 | 18.2 | 25.2 | 0.00 | 0.00 | 0.00 | 54 | 1020.6 |
| 20260508103208 | 60 | 257 | 18.2 | 22.6 | 0.00 | 0.00 | 0.00 | 54 | 1020.7 |
| 20260508102708 | 60 | 259 | 17.4 | 24.3 | 0.00 | 0.00 | 0.00 | 54 | 1020.6 |
| 20260508102208 | 60 | 246 | 18.2 | 24.3 | 0.00 | 0.00 | 0.00 | 54 | 1020.6 |
| 20260508101708 | 60 | 253 | 15.6 | 27.8 | 0.00 | 0.00 | 0.00 | 54 | 1020.5 |
| 20260508101208 | 60 | 256 | 20.9 | 26.1 | 0.00 | 0.00 | 0.00 | 54 | 1020.5 |
| 20260508100709 | 60 | 246 | 19.1 | 26.1 | 0.00 | 0.00 | 0.00 | 54 | 1020.6 |
| 20260508100208 | 60 | 261 | 17.4 | 25.2 | 0.00 | 0.00 | 0.00 | 54 | 1020.4 |
| 20260508095708 | 60 | 261 | 19.1 | 26.9 | 0.00 | 0.00 | 0.00 | 54 | 1020.1 |
| 20260508095209 | 60 | 260 | 18.2 | 25.2 | 0.00 | 0.00 | 0.00 | 54 | 1020.3 |
| 20260508094708 | 60 | 257 | 17.4 | 26.1 | 0.00 | 0.00 | 0.00 | 54 | 1020.2 |
| 20260508093708 | 60 | 253 | 18.2 | 24.3 | 0.00 | 0.00 | 0.00 | 54 | 1020.1 |
| 20260508093208 | 60 | 256 | 18.2 | 24.3 | 0.00 | 0.00 | 0.00 | 54 | 1020.2 |
| 20260508092708 | 60 | 256 | 15.6 | 25.2 | 0.00 | 0.00 | 0.00 | 54 | 1020.1 |
| 20260508092208 | 61 | 257 | 19.1 | 25.2 | 0.00 | 0.00 | 0.00 | 54 | 1019.9 |
| 20260508091709 | 61 | 256 | 18.2 | 26.1 | 0.00 | 0.00 | 0.00 | 54 | 1019.9 |
| 20260508091208 | 61 | 262 | 19.1 | 28.7 | 0.00 | 0.00 | 0.00 | 53 | 1019.6 |
| 20260508090708 | 61 | 258 | 19.1 | 30.4 | 0.00 | 0.00 | 0.00 | 53 | 1019.8 |